Location: Home
(42.5358°N, 72.7383°W)
Time: 16:05:29
(UTC-04:00)

Kosmos-337 - Pass Details

Date: 05 July 2022
Orbit: 1467 x 1552 km, 74.0° (Epoch: 18 August)

Event Time Altitude Azimuth Distance (km) Brightness Sun altitude
Rises 22:45:54 0° 342° (NNW) 4,734 ? -18.2°
Reaches altitude 10° 22:51:19 10° 7° (N) 3,745 ? -18.7°
Maximum altitude 22:55:24 13° 35° (NE) 3,469 ? -19.1°
Drops below altitude 10° 22:59:27 10° 62° (ENE) 3,726 ? -19.5°
Sets 23:04:45 0° 87° (E) 4,690 ? -19.9°
